Powrót do katalogu

KUIPER-00620

AktywnyŁącznośćLEO
NORAD 69295·PAYLOAD·🇺🇸 United States

Wystrzelony May 29, 2026 z Vandenberg Space Force Base

Loading…

Następne Przeloty (najbliższe 24 godziny)

TLE

ŚwieżeSource: CelesTrak SupGP

Epoka: Sep 14, 2026, 18:26 UTC

1 69295C 26118AE  26257.76850694  .00007515  00000+0  98403-3 0  2577
2 69295  51.9041 357.0500 0000388  91.1655 140.4293 14.79912196    12

Śledź KUIPER-00620 w czasie rzeczywistym z AllMySat

Download on the App Store